Weather History for Ohio State University, OH

Change the Weather History Date:

Wednesday, August 14, 2013

  Actual Average Record
Temperature  
Mean Temperature 60 °F -  
Max Temperature 68 °F 80 °F 90 °F (2010)
Min Temperature 51 °F 60 °F 50 °F (2004)
Degree Days  
Heating Degree Days 6    
Growing Degree Days 10 (Base 50)    
Moisture  
Dew Point 48 °F    
Average Humidity 69    
Maximum Humidity 89    
Minimum Humidity 49    
Precipitation  
Precipitation 0.00 in - - ()
Sea Level Pressure  
Sea Level Pressure 30.13 in    
Wind  
Wind Speed 6 mph (NNW)    
Max Wind Speed 10 mph    
Max Gust Speed 16 mph    
Visibility 10 miles    
Events      
Averages and records for this station are not official NWS values.
T = Trace of Precipitation, MM = Missing Value Source: NWS Daily Summary

Daily Weather History Graph

Daily Weather History Graph

Search for Another Location

Airport:

Trip Planner

Search our weather history database for the weather conditions in past years. The results will help you decide how hot, cold, wet, or windy it might be!

Date:

Astronomy

Aug. 14, 2013 Rise Set
Actual Time 6:43 AM EDT 8:30 PM EDT
Civil Twilight 6:13 AM EDT 8:59 PM EDT
Nautical Twilight 5:38 AM EDT 9:34 PM EDT
Astronomical Twilight 5:00 AM EDT 10:12 PM EDT
Moon 2:41 PM EDT (8/14) 12:05 AM EDT (8/14)
Length of Visible Light 14h 45m
Length of Day
13h 47m
First Quarter, 52% of the Moon is Illuminated
Aug 14
First Quarter
Aug 20
Full
Aug 28
Last Quarter
Sep 5
New
Sep 12
First Quarter

Hourly Weather History & Observations

Time (EDT) Temp. Dew Point Humidity Pressure Visibility Wind Dir Wind Speed Gust Speed Precip Events Conditions
12:53 AM 53.1 °F 48.9 °F 86% 30.06 in 10.0 mi West 4.6 mph - N/A   Clear
1:53 AM 51.1 °F 48.0 °F 89% 30.06 in 10.0 mi West 5.8 mph - N/A   Clear
2:53 AM 52.0 °F 48.0 °F 86% 30.05 in 10.0 mi NW 5.8 mph - N/A   Clear
3:53 AM 53.1 °F 48.0 °F 83% 30.06 in 10.0 mi NW 6.9 mph - N/A   Clear
4:53 AM 52.0 °F 48.0 °F 86% 30.07 in 10.0 mi NNW 6.9 mph - N/A   Clear
5:53 AM 51.1 °F 46.9 °F 86% 30.09 in 10.0 mi NNW 5.8 mph - N/A   Clear
6:53 AM 51.1 °F 46.9 °F 86% 30.11 in 10.0 mi NNW 6.9 mph - N/A   Clear
7:53 AM 53.1 °F 46.9 °F 80% 30.12 in 10.0 mi NNW 5.8 mph - N/A   Clear
8:53 AM 57.0 °F 48.0 °F 72% 30.14 in 10.0 mi North 10.4 mph - N/A   Clear
9:53 AM 59.0 °F 48.0 °F 67% 30.15 in 10.0 mi North 8.1 mph - N/A   Clear
10:53 AM 63.0 °F 46.9 °F 56% 30.17 in 10.0 mi NNW 8.1 mph 16.1 mph N/A   Scattered Clouds
11:53 AM 64.0 °F 46.9 °F 54% 30.17 in 10.0 mi NNW 9.2 mph - N/A   Mostly Cloudy
12:53 PM 64.0 °F 48.0 °F 56% 30.16 in 10.0 mi NNE 9.2 mph - N/A   Mostly Cloudy
1:53 PM 66.0 °F 48.0 °F 52% 30.15 in 10.0 mi North 3.5 mph - N/A   Mostly Cloudy
2:53 PM 66.0 °F 48.0 °F 52% 30.15 in 10.0 mi NNW 5.8 mph - N/A   Overcast
3:53 PM 66.0 °F 48.0 °F 52% 30.15 in 10.0 mi NNW 5.8 mph - N/A   Overcast
4:53 PM 68.0 °F 48.0 °F 49% 30.15 in 10.0 mi North 10.4 mph - N/A   Overcast
5:53 PM 66.0 °F 48.9 °F 54% 30.15 in 10.0 mi NNE 6.9 mph - N/A   Overcast
6:53 PM 66.9 °F 48.9 °F 52% 30.14 in 10.0 mi North 8.1 mph - N/A   Clear
7:53 PM 64.0 °F 48.9 °F 58% 30.15 in 10.0 mi NNW 4.6 mph - N/A   Clear
8:53 PM 62.1 °F 50.0 °F 65% 30.16 in 10.0 mi Calm Calm - N/A   Clear
9:53 PM 59.0 °F 50.0 °F 72% 30.17 in 10.0 mi Calm Calm - N/A   Clear
10:53 PM 57.0 °F 51.1 °F 81% 30.17 in 10.0 mi Calm Calm - N/A   Clear
11:53 PM 55.9 °F 51.1 °F 84% 30.18 in 10.0 mi West 3.5 mph - N/A   Clear